TimeEDT,TemperatureF,Dew PointF,Humidity,Sea Level PressureIn,VisibilityMPH,Wind Direction,Wind SpeedMPH,Gust SpeedMPH,PrecipitationIn,Events,Conditions,WindDirDegrees,DateUTC
12:15 AM,60.1,56.1,87,30.05,10.0,Calm,Calm,-,N/A,,Scattered Clouds,0,2014-03-16 04:15:00
12:35 AM,60.3,56.7,88,30.05,10.0,Calm,Calm,-,N/A,,Mostly Cloudy,0,2014-03-16 04:35:00
12:55 AM,60.1,56.3,87,30.04,10.0,Calm,Calm,-,N/A,,Overcast,0,2014-03-16 04:55:00
1:15 AM,59.9,56.5,88,30.04,10.0,Calm,Calm,-,N/A,,Overcast,0,2014-03-16 05:15:00
1:35 AM,60.8,56.5,86,30.03,10.0,ESE,3.5,-,N/A,,Overcast,110,2014-03-16 05:35:00
2:15 AM,60.4,56.3,86,30.03,10.0,Calm,Calm,-,N/A,,Overcast,0,2014-03-16 06:15:00
2:35 AM,60.8,56.5,86,30.02,10.0,Calm,Calm,-,N/A,,Overcast,0,2014-03-16 06:35:00
2:55 AM,61.9,56.3,82,30.02,10.0,Calm,Calm,-,N/A,,Overcast,0,2014-03-16 06:55:00
3:15 AM,62.1,56.7,82,30.01,10.0,SE,3.5,-,N/A,,Overcast,130,2014-03-16 07:15:00
3:35 AM,62.6,55.4,77,29.99,10.0,SE,4.6,-,N/A,,Overcast,130,2014-03-16 07:35:00
3:55 AM,62.2,55.4,78,29.98,10.0,SE,4.6,-,N/A,,Overcast,130,2014-03-16 07:55:00
4:15 AM,62.1,55.4,79,29.96,10.0,SE,4.6,-,N/A,,Overcast,130,2014-03-16 08:15:00
4:35 AM,61.7,54.9,78,29.94,10.0,Calm,Calm,-,N/A,,Overcast,0,2014-03-16 08:35:00
4:55 AM,61.0,55.2,81,29.94,10.0,Calm,Calm,-,N/A,,Scattered Clouds,0,2014-03-16 08:55:00
5:15 AM,59.5,54.9,84,29.92,10.0,Calm,Calm,-,N/A,,Scattered Clouds,0,2014-03-16 09:15:00
5:35 AM,58.3,55.4,90,29.92,10.0,Calm,Calm,-,N/A,,Clear,0,2014-03-16 09:35:00
5:55 AM,59.2,54.7,85,29.92,10.0,Calm,Calm,-,N/A,,Clear,0,2014-03-16 09:55:00
6:15 AM,58.8,54.9,87,29.92,10.0,Calm,Calm,-,N/A,,Scattered Clouds,0,2014-03-16 10:15:00
6:35 AM,58.5,55.4,90,29.91,10.0,ESE,3.5,-,N/A,,Scattered Clouds,120,2014-03-16 10:35:00
6:55 AM,59.4,55.0,86,29.91,10.0,Calm,Calm,-,N/A,,Mostly Cloudy,0,2014-03-16 10:55:00
7:15 AM,59.0,55.4,88,29.90,10.0,SE,3.5,-,N/A,,Overcast,130,2014-03-16 11:15:00
7:35 AM,59.0,54.9,86,29.89,10.0,ESE,4.6,-,N/A,,Overcast,120,2014-03-16 11:35:00
8:15 AM,59.9,54.0,81,29.88,10.0,SE,3.5,-,N/A,,Overcast,140,2014-03-16 12:15:00
8:35 AM,59.9,54.0,81,29.87,10.0,SSE,4.6,-,N/A,,Overcast,160,2014-03-16 12:35:00
8:55 AM,59.9,54.5,82,29.88,10.0,South,4.6,-,N/A,,Overcast,170,2014-03-16 12:55:00
9:15 AM,60.8,54.9,81,29.86,10.0,SSE,6.9,-,N/A,,Mostly Cloudy,160,2014-03-16 13:15:00
9:35 AM,61.7,55.4,80,29.85,10.0,South,5.8,-,N/A,,Scattered Clouds,170,2014-03-16 13:35:00
9:55 AM,62.1,55.2,78,29.84,10.0,SSE,6.9,-,N/A,,Clear,160,2014-03-16 13:55:00
10:15 AM,62.6,55.6,78,29.83,10.0,SSE,6.9,-,N/A,,Mostly Cloudy,150,2014-03-16 14:15:00
10:35 AM,62.6,56.1,79,29.85,10.0,South,3.5,-,N/A,,Overcast,190,2014-03-16 14:35:00
10:55 AM,63.0,56.5,79,29.85,10.0,East,3.5,-,N/A,,Overcast,100,2014-03-16 14:55:00
11:15 AM,62.6,57.4,83,29.85,10.0,ENE,4.6,-,N/A,Rain,Light Rain,70,2014-03-16 15:15:00
11:35 AM,61.5,59.2,92,29.88,7.0,North,4.6,-,N/A,Rain,Rain,360,2014-03-16 15:35:00
11:55 AM,60.1,59.9,99,29.89,5.0,NNE,4.6,-,N/A,Rain,Heavy Rain,30,2014-03-16 15:55:00
12:15 PM,60.3,60.3,100,29.88,5.0,Calm,Calm,-,N/A,Rain,Rain,0,2014-03-16 16:15:00
12:35 PM,60.1,60.1,100,29.86,5.0,East,3.5,-,N/A,Rain,Rain,90,2014-03-16 16:35:00
12:55 PM,60.1,60.1,100,29.85,4.0,ENE,3.5,-,N/A,Rain-Thunderstorm,Thunderstorms and Rain,60,2014-03-16 16:55:00
1:15 PM,60.1,60.1,100,29.85,4.0,East,5.8,-,N/A,Rain-Thunderstorm,Thunderstorms and Rain,80,2014-03-16 17:15:00
1:35 PM,60.3,60.3,100,29.83,5.0,ENE,5.8,-,N/A,Rain,Rain,70,2014-03-16 17:35:00
1:55 PM,60.8,60.8,100,29.84,4.0,Calm,Calm,-,N/A,Rain-Thunderstorm,Thunderstorms and Rain,0,2014-03-16 17:55:00
2:15 PM,60.8,60.8,100,29.83,1.2,SE,4.6,-,N/A,Rain,Heavy Rain,130,2014-03-16 18:15:00
2:55 PM,61.0,61.0,100,29.82,1.8,SE,3.5,-,N/A,Rain-Thunderstorm,Heavy Thunderstorms and Rain,140,2014-03-16 18:55:00
3:15 PM,61.7,61.7,100,29.80,7.0,SE,8.1,-,N/A,Rain-Thunderstorm,Thunderstorms and Rain,130,2014-03-16 19:15:00
3:35 PM,61.9,61.9,100,29.80,4.0,SSE,4.6,-,N/A,Rain-Thunderstorm,Heavy Thunderstorms and Rain,150,2014-03-16 19:35:00
3:55 PM,61.9,61.9,100,29.72,5.0,SE,18.4,-,N/A,Rain,Rain,140,2014-03-16 19:55:00
4:15 PM,62.8,62.8,100,29.71,10.0,SSE,13.8,20.7,N/A,Rain-Thunderstorm,Light Thunderstorms and Rain,150,2014-03-16 20:15:00
4:35 PM,63.0,63.0,100,29.68,7.0,SSE,18.4,24.2,N/A,Rain,Rain,150,2014-03-16 20:35:00
4:55 PM,63.5,63.5,100,29.71,10.0,South,9.2,26.5,N/A,Rain,Light Rain,190,2014-03-16 20:55:00
5:15 PM,63.7,63.7,100,29.72,10.0,South,8.1,17.3,N/A,Rain,Rain,170,2014-03-16 21:15:00
5:35 PM,64.0,63.5,98,29.72,10.0,West,5.8,10.4,N/A,Rain,Light Rain,270,2014-03-16 21:35:00
5:55 PM,64.6,63.0,94,29.74,7.0,South,11.5,-,N/A,Rain-Thunderstorm,Heavy Thunderstorms and Rain,190,2014-03-16 21:55:00
6:15 PM,63.7,63.5,99,29.72,5.0,SSE,15.0,19.6,N/A,Rain-Thunderstorm,Rain,150,2014-03-16 22:15:00
6:35 PM,63.5,63.1,99,29.70,10.0,South,15.0,27.6,N/A,Rain,Light Rain,180,2014-03-16 22:35:00
6:55 PM,63.7,63.1,98,29.72,10.0,SSE,4.6,-,N/A,,Overcast,160,2014-03-16 22:55:00
7:15 PM,63.7,63.1,98,29.73,10.0,SW,3.5,-,N/A,Rain,Light Rain,220,2014-03-16 23:15:00
7:35 PM,63.5,63.3,99,29.77,10.0,Calm,Calm,-,N/A,,Overcast,0,2014-03-16 23:35:00
7:55 PM,63.3,63.1,99,29.79,10.0,SSW,3.5,-,N/A,,Mostly Cloudy,210,2014-03-16 23:55:00
8:15 PM,63.1,63.1,100,29.79,10.0,SSW,3.5,-,N/A,,Overcast,200,2014-03-17 00:15:00
8:35 PM,63.0,63.0,100,29.79,10.0,South,10.4,-,N/A,Rain,Rain,190,2014-03-17 00:35:00
8:55 PM,63.0,63.0,100,29.80,10.0,SSW,6.9,-,N/A,Rain,Rain,200,2014-03-17 00:55:00
9:15 PM,63.5,63.5,100,29.82,10.0,SW,5.8,-,N/A,Rain,Rain,220,2014-03-17 01:15:00
9:35 PM,63.1,63.1,100,29.83,10.0,SSW,6.9,-,N/A,Rain,Rain,200,2014-03-17 01:35:00
9:55 PM,63.1,63.1,100,29.83,10.0,SSW,8.1,-,N/A,Rain,Rain,210,2014-03-17 01:55:00
10:15 PM,63.0,63.0,100,29.82,10.0,SSW,5.8,-,N/A,Rain,Light Rain,210,2014-03-17 02:15:00
10:35 PM,62.6,62.6,100,29.82,7.0,Calm,Calm,-,N/A,Rain,Rain,0,2014-03-17 02:35:00
10:55 PM,62.2,62.2,100,29.82,7.0,Calm,Calm,-,N/A,Rain,Rain,0,2014-03-17 02:55:00
11:15 PM,62.1,62.1,100,29.82,5.0,SSW,3.5,-,N/A,Rain,Rain,200,2014-03-17 03:15:00
11:35 PM,61.9,61.9,100,29.81,7.0,SW,4.6,-,N/A,Rain,Rain,230,2014-03-17 03:35:00
11:55 PM,61.7,61.7,100,29.81,7.0,SSW,8.1,-,N/A,Rain,Rain,200,2014-03-17 03:55:00